This is the latest recevied weather packets stored in our database for station/object KJ4RDP-13. If no packets are shown the sender has not sent any weather packets the latest 1 day(s).
| Time | Temp. | Humidity | Pressure | Rain* | Wind** | Luminosity | Snow |
|---|---|---|---|---|---|---|---|
| 1777998273 | 21.67° C | 46% | 1015.7 hPa | 0 mm | 0.45 m/s, 226° | 574 W/m² | - |
| 1777997970 | 21.11° C | 47% | 1015.7 hPa | 0 mm | 2.24 m/s, 212° | 714 W/m² | - |
| 1777997667 | 21.11° C | 48% | 1015.7 hPa | 0 mm | 0.89 m/s, 223° | 603 W/m² | - |
| 1777997365 | 21.67° C | 46% | 1016 hPa | 0 mm | 1.79 m/s, 239° | 413 W/m² | - |
| 1777997062 | 22.78° C | 49% | 1015.7 hPa | 0 mm | 0.89 m/s, 306° | 667 W/m² | - |
| 1777996759 | 21.11° C | 50% | 1015.7 hPa | 0 mm | 0.45 m/s, 258° | 725 W/m² | - |
| 1777996455 | 21.67° C | 50% | 1015.7 hPa | 0 mm | 2.24 m/s, 269° | 699 W/m² | - |
| 1777996152 | 21.11° C | 52% | 1016 hPa | 0 mm | 2.24 m/s, 235° | 713 W/m² | - |
| 1777995848 | 21.11° C | 47% | 1016 hPa | 0 mm | 1.79 m/s, 329° | 700 W/m² | - |
| 1777995544 | 20.56° C | 48% | 1016.4 hPa | 0 mm | 1.34 m/s, 299° | 611 W/m² | - |
| 1777995242 | 20.56° C | 49% | 1016 hPa | 0 mm | 1.79 m/s, 296° | 551 W/m² | - |
| 1777994938 | 20.56° C | 49% | 1016.4 hPa | 0 mm | 1.79 m/s, 307° | 529 W/m² | - |
| 1777994635 | 20.56° C | 49% | 1016.4 hPa | 0 mm | 2.68 m/s, 259° | 527 W/m² | - |
| 1777994335 | 20° C | 49% | 1016.4 hPa | 0 mm | 2.24 m/s, 283° | 544 W/m² | - |
| 1777994026 | 20° C | 50% | 1016.4 hPa | 0 mm | 1.34 m/s, 238° | 585 W/m² | - |
| 1777993723 | 20° C | 52% | 1016.4 hPa | 0 mm | 2.68 m/s, 259° | 527 W/m² | - |
| 1777993420 | 20° C | 55% | 1016.4 hPa | 0 mm | 1.34 m/s, 269° | 550 W/m² | - |
| 1777993115 | 20° C | 52% | 1016.4 hPa | 0 mm | 1.79 m/s, 282° | 569 W/m² | - |
| 1777992813 | 20° C | 49% | 1016.4 hPa | 0 mm | 2.24 m/s, 287° | 652 W/m² | - |
| 1777992510 | 19.44° C | 52% | 1016.4 hPa | 0 mm | 0.89 m/s, 270° | 594 W/m² | - |
| 1777992209 | 19.44° C | 52% | 1016.4 hPa | 0 mm | 3.58 m/s, 308° | 602 W/m² | - |
| 1777991905 | 19.44° C | 59% | 1016.4 hPa | 0 mm | 1.34 m/s, 276° | 594 W/m² | - |
| 1777991603 | 19.44° C | 54% | 1016.4 hPa | 0 mm | 0.45 m/s, 234° | 551 W/m² | - |
| 1777991300 | 18.89° C | 53% | 1016.4 hPa | 0 mm | 0.89 m/s, 313° | 568 W/m² | - |
| 1777990997 | 18.89° C | 54% | 1016 hPa | 0 mm | 0 m/s | 590 W/m² | - |
* Rain latest hour (hover to see other rain measurements)
** Current wind speed in m/s (hover to see current wind gust speed)